Regional Weather Roundup
Issued by NWS Green Bay, WI

Home | Current Version | Previous Version | Text Only | Print | Product List | Glossary On
Versions: 1 2 3 4 5 6 7 8 9 10 11 12 13 14 15 16 17 18 19 20 21 22 23 24 25 26 27 28 29 30 31 32 33 34 35 36 37 38 39 40 41 42 43 44 45 46 47 48 49 50
000
ASUS43 KGRB 051011
RWRGRB

NORTH-CENTRAL AND NORTHEAST WISCONSIN REGIONAL WEATHER ROUNDUP
NATIONAL WEATHER SERVICE GREEN BAY WI
500 AM CDT THU MAY 05 2016

WIZ005-009-010>012-018-019-051100-
NORTH CENTRAL WISCONSIN

CITY           SKY/WX    TMP DP  RH WIND       PRES   REMARKS
IRONWOOD         N/A     30  28  93 CALM      29.98S
MANITOWISH WTR MOCLDY    29  29 100 CALM      30.00R FOG
ARBOR VITAE    CLOUDY    29  27  93 CALM      30.00R
EAGLE RIVER    CLEAR     26  26  99 CALM      29.99S
LAND O LAKES   CLOUDY    26  26  99 CALM      30.00S
RHINELANDER    CLEAR     29  27  92 CALM      30.00S FOG
PHILLIPS       CLOUDY    29  28  99 CALM      30.00S
ANTIGO         CLEAR     32  30  94 CALM      30.00R
TOMAHAWK       CLOUDY    27  26  96 CALM      30.01S
MERRILL        CLOUDY    28  28  98 CALM      30.01S
$$

WIZ013-073-051100-
NORTHEAST WISCONSIN

CITY           SKY/WX    TMP DP  RH WIND       PRES   REMARKS
IRON MOUNTAIN  CLOUDY    28  24  85 CALM      29.98R
MARINETTE      CLEAR     34  30  86 N3        30.00S
OCONTO         CLEAR     34  33  94 N5        29.99R
$$

WIZ017-030-035>037-045-051100-
CENTRAL WISCONSIN

CITY           SKY/WX    TMP DP  RH WIND       PRES   REMARKS
MEDFORD        PTCLDY    32  31  96 CALM      30.00R
WAUSAU         CLEAR     37  31  78 NW3       29.99R
MOSINEE        CLEAR     34  32  93 CALM      30.01S
MARSHFIELD     CLEAR     36  30  79 E6        29.99S
WISC RAPIDS    CLEAR     34  29  82 CALM      30.02R
STEVENS POINT  PTCLDY    30  28  90 CALM      30.01S
WAUPACA        PTCLDY    37  32  81 NW3       30.00R
SHAWANO        CLEAR     37  32  80 N5        29.99S
CLINTONVILLE   CLEAR     36  32  87 N5        29.99S
WAUTOMA        CLEAR     31  31 100 NW3       30.00S
$$

WIZ038-039-048-051-051100-
FOX VALLEY

CITY           SKY/WX    TMP DP  RH WIND       PRES   REMARKS
NWS GREEN BAY  CLEAR     35  31  85 N9        29.99R
APPLETON       CLEAR     34  30  86 N5        29.96S
OSHKOSH        CLEAR     36  30  79 N7        29.98R
FOND DU LAC    CLEAR     37  31  78 NW10      29.98R
$$

WIZ022-050-052-051100-
EAST CENTRAL WISCONSIN

CITY           SKY/WX    TMP DP  RH WIND       PRES   REMARKS
EPHRAIM        FAIR      36  34  91 N9        29.96S
STURGEON BAY   CLEAR     37  30  75 N9        30.00R
MANITOWOC      CLEAR     37  33  85 N8        29.97R
SHEBOYGAN      CLOUDY    38  32  79 N8        29.95R
$$

LMZ563-521-522-541>543-051100-
LAKESHORE

STATION/POSITION TIME  TEMP    WIND        PRES    VSBY  WAVE
                       AIR SEA DIR/SP/G                  HT/PER
                 (UTC) (F)     (DEG/KT/KT) (MB)    (MI)  (FT/S)
SHEBOYGAN LKSHOR 1000   41     340/ 13/ 14 1015.0R
KEWAUNEE LKSHORE 0900   38     330/  7/  9 1013.6R
NORTHPORT PIER   0924   39     340/ 11/ 16 1014.9R
N MID LAKE BUOY  0950   38 38  340/ 14/ 16 1014.4R         2/ 4
CHAMBERS ISLAND  0900   38     330/ 10/ 12 1015.2R
MENOMINEE LKSHOR 0900   38     320/  9/ 11 1014.0R
$$




USA.gov is the U.S. government's official web portal to all federal, state and local government web resources and services.